Weather in Tây Ninh

Vietnam     11°18′47″N   106°07′06″E
temp.,
°C
wind,
m/s
gust,
m/s
humid.,
%
clouds,
%
prec.,
mm/h
press.,
hPa
HPBL,
m
17 may, mon
mon1701:00+29s477471 0.0 1007441
04:00+28s247797 0.1 1007260
07:00+29sse23716 0.1 1008369
10:00+34se335292 0.0 10081332
13:00+35ese4346100 0.4 10062071
16:00+33sse5555100 0.3 1005807
19:00+31sse4859100 0.4 1006531
22:00+27se4881100 2.8 1009255
18 may, tue
tue1801:00+28s377949 3.6 1008341
04:00+26ene0285100 6.8 100782
07:00+28sse367616 8.3 1008363
10:00+33sse445497 0.0 10091386
13:00+35se3344100 0.2 10062204
16:00+33s345393 0.4 1005951
19:00+31ssw356041 0.4 1006171
22:00+29s4774100 3.5 1008233
19 may, wed
wed1901:00+27sse378292 3.5 1007264
04:00+27s368343 0.0 1007208
07:00+28s247628 0.6 1009276
10:00+33s345599 2.7 10091421
13:00+34sw3348100 3.3 10061775
16:00+32s2359100 0.6 1005126
19:00+31s226493 0.6 100641
22:00+29ssw356993 0.0 1008204
20 may, thu
thu2001:00+29s3573100 0.0 1007180
04:00+27sse3678100 0.0 1006279
07:00+29sse3475100 0.0 1008344
10:00+33ssw335486 0.0 10081437
13:00+35sw2344100 0.1 10052009
16:00+35ssw334699 0.1 10041199
19:00+33ssw4757100 0.1 1005334
22:00+30ssw367292 2.1 1008202
21 may, fri
fri2101:00+29sw3676100 2.6 1006222
04:00+28sw2377100 0.0 1006106
07:00+29sw3774100 0.1 1008488
10:00+34wsw5653100 0.0 10081344
13:00+36w554498 0.0 10052069
16:00+33ssw91056100 0.0 1003681
19:00+29wsw477295 1.7 1007424
22:00+29wsw3674100 1.0 1008353